Home   Weather   Kūh-e Pak Malī   Past weeks
Flag for Iran

Past Weather in Kūh-e Pak Malī, Iran — Yesterday and Last 2 Weeks

Now
102 °F

Passing clouds.


Feels Like: 97 °F
Forecast: 98 / 68 °F
Wind: 12 mph from Southeast

Location: Ghazvin

Current Time: Jun 25, 2019 at 4:20:30 pm

Latest Report: Jun 25, 2019 at 3:30 pm


Visibility: N/A

Pressure: 29.92 "Hg

Humidity: 11%

Dew Point: 39 °F

Location of Kūh-e Pak MalīLocation

Past Weather in Kūh-e Pak Malī — Graph

°F

Kūh-e Pak Malī Temperature Yesterday

Maximum temperature yesterday: 100 °F (at 2:30 pm)
Minimum temperature yesterday: 68 °F (at 6:30 am)
Average temperature yesterday: 88 °F

High & Low Weather Summary for the Past Weeks

 TemperatureHumidityPressure
High100 °F (Jun 24, 2:30 pm)94% (Jun 13, 3:30 am)30.12 "Hg (Jun 13, 3:30 am)
Low57 °F (Jun 15, 5:30 am)11% (Jun 17, 6:30 pm)29.71 "Hg (Jun 21, 5:30 pm)
Average80 °F39%29.91 "Hg
* Reported Jun 10 2:30 pm — Jun 25 2:30 pm, Kūh-e Pak Malī. Weather by CustomWeather, © 2019

Note: Actual official high and low records may vary slightly from our data, if they occured in-between our weather recording intervals... More about our weather records

Advertising

Kūh-e Pak Malī Weather History for the Previous 24 Hours

Scroll right to see more
 ConditionsComfort  
Time TempWeatherWind HumidityBarometerVisibility
2:30 pm
Tue, Jun 25
100 °FPassing clouds.12 mph11%29.95 "HgN/A
1:30 pm100 °FSunny.14 mph11%29.95 "Hg10 mi
12:30 pm99 °FSunny.14 mph13%29.98 "Hg10 mi
11:30 am97 °FSunny.12 mph14%29.98 "Hg10 mi
10:30 am93 °FSunny.9 mph16%30.01 "Hg10 mi
9:30 am90 °FSunny.5 mph18%30.01 "Hg10 mi
8:30 am86 °FSunny.7 mph20%30.01 "Hg10 mi
7:30 am81 °FSunny.2 mph28%29.98 "Hg10 mi
6:30 am73 °FSunny.2 mph31%29.98 "Hg10 mi
5:30 am75 °FClear.7 mph27%29.98 "Hg10 mi
3:30 am81 °FClear.5 mph26%29.95 "Hg10 mi
2:30 am79 °FClear.5 mph28%29.95 "Hg10 mi
12:30 am77 °FClear.2 mph32%29.95 "Hg10 mi
9:30 pm
Mon, Jun 24
84 °FClear.7 mph23%29.92 "Hg10 mi
8:30 pm88 °FSunny.7 mph21%29.89 "Hg10 mi
7:30 pm95 °FSunny.5 mph16%29.89 "Hg10 mi
6:30 pm100 °FSunny.12 mph14%29.89 "Hg10 mi
5:30 pm100 °FSunny.14 mph13%29.89 "Hg10 mi
4:30 pm100 °FSunny.14 mph13%29.92 "Hg10 mi
Weather by CustomWeather, © 2019

See weather overview